Location: Ar Ranvel
(48.3000°N, 4.8833°W)
Time: 14:31:53
(UTC+00:00)

Spot 2 Rocket - Pass Details

Date: 16 June 2021
Orbit: 757 x 772 km, 98.5° (Epoch: 31 July)

Event Time Altitude Azimuth Distance (km) Brightness Sun altitude
Exits shadow 21:17:52 - 156° (SSE) 2,462 5.5 -7.5°
Reaches altitude 10° 21:18:18 10° 155° (SSE) 2,289 5.3 -7.6°
Maximum altitude 21:23:19 71° 72° (ENE) 809 3.6 -8.1°
Drops below altitude 10° 21:28:23 10° 349° (N) 2,315 7.1 -8.6°
Sets 21:30:43 0° 348° (NNW) 3,248 8.0 -8.9°
